Weather Roundup
Issued by NWS Springfield, MO

Home | Current Version | Previous Version | Text Only | Print | Product List | Glossary On
Versions: 1 2 3 4 5 6 7 8 9 10 11 12 13 14 15 16 17 18 19 20 21 22 23 24 25 26 27 28 29 30 31 32 33 34 35 36 37 38 39 40 41 42 43 44 45 46 47 48 49 50
000
NZUS99 KSGF 241907
HRRSGF

HOURLY WEATHER
NATIONAL WEATHER SERVICE SPRINGFIELD MO
200 PM CDT SUN MAY 24 2015

......SGF CWA......

CITY           SKY/WX    TMP DP  RH WIND       PRES   REMARKS
SPRINGFIELD    LGT RAIN  67  63  87 S15       29.94R
JOPLIN         LGT RAIN  67  65  93 S8        29.93S FOG
WEST PLAINS    PTSUNNY   78  66  66 S16G24    29.99F
ROLLA          PTSUNNY   78  66  66 S24G33    29.94F
OSAGE BEACH    MOSUNNY   81  64  57 S16G22    29.90F
BRANSON        CLOUDY    68  64  88 W5        29.96F

......SURROUNDING SGF CWA......

CITY           SKY/WX    TMP DP  RH WIND       PRES   REMARKS
CHANUTE        CLOUDY    68  62  81 S7        29.90F
PARSONS        LGT RAIN  68  64  87 S6        29.92F
COFFEYVILLE    LGT RAIN  67  64  90 SE8       29.90F
EMPORIA        CLOUDY    67  61  81 SE12      29.87F
GROVE OK       DRIZZLE   70  70 100 SW5       29.94S
ROGERS AR      LGT RAIN  66  64  93 W7        29.96S
SILOAM SPRINGS CLOUDY    64  57  77 S5        29.96S
HARRISON AR    LGT RAIN  75  66  73 S16G24    29.94F
NEAR YELLVILLE CLOUDY    81  66  61 SE7G22    29.92F

......KANSAS AND MISSOURI......

CITY           SKY/WX    TMP DP  RH WIND       PRES   REMARKS
KANSAS CTY INT CLOUDY    68  63  84 SW7       29.87F
DOWNTOWN KC    LGT RAIN  71  64  78 SW8       29.86F
COLUMBIA       PTSUNNY   79  66  64 S20G29    29.91F
SEDALIA        LGT RAIN  76  67  73 S21G37    29.88S
ST JOSEPH      CLOUDY    70  64  81 S14       29.85F
ST LOUIS       PTSUNNY   85  62  46 S15G31    29.98F
SPIRIT OF STL  PTSUNNY   83  64  52 S17G31    29.96F
KIRKSVILLE     PTSUNNY   72  68  87 SW12      29.90F
WICHITA        CLOUDY    70  61  73 SE9       29.87F
TOPEKA         CLOUDY    71  62  73 S7        29.87F
OLATHE         CLOUDY    68  63  84 SW5       29.88F

......TENNESSEE......

CITY           SKY/WX    TMP DP  RH WIND       PRES   REMARKS
MEMPHIS        PTSUNNY   85  67  54 SE17G23   30.04F
NASHVILLE      MOSUNNY   86  63  45 S9G22     30.18F

......ARKANSAS.......

CITY           SKY/WX    TMP DP  RH WIND       PRES   REMARKS
FAYETTEVILLE   HVY RAIN  63  63 100 SW6       29.95S FOG
FT SMITH       RAIN      66  63  90 CALM      29.93F FOG
LITTLE ROCK    CLOUDY    85  70  60 SE15G23   29.95F

......OKLAHOMA.......

CITY           SKY/WX    TMP DP  RH WIND       PRES   REMARKS
TULSA          LGT RAIN  69  65  86 SE6       29.89F
PONCA CITY     HVY RAIN  64  63  96 VRB3      29.90R FOG
MCALESTER      RAIN      65  63  93 E6        29.91F FOG
OKLAHOMA CITY  LGT RAIN  65  63  93 SE9       29.87F

......IOWA............

CITY           SKY/WX    TMP DP  RH WIND       PRES   REMARKS
DES MOINES     CLOUDY    67  63  87 SE10      29.85F
QUAD CITIES    CLOUDY    71  67  87 E6        29.93F

......ILLINOIS........

CITY           SKY/WX    TMP DP  RH WIND       PRES   REMARKS
QUINCY         CLOUDY    79  64  60 S15G30    29.92F
CHICAGO        CLOUDY    70  52  52 E13       30.06F




USA.gov is the U.S. government's official web portal to all federal, state and local government web resources and services.